Погода в Форте-дей-Марми

Италия     43°58′06″N   10°09′18″E
темп.,
°C
ветер,
м/с
пор.,
м/с
влажн.,
%
обл.,
%
осадки,
мм/ч
давл.,
гПа
погр.,
м
25 октября, пн
пн2523:00+11ссв3356100 0.0 1023109
02:00+10ссв3357100 0.0 102294
05:00+9ссв2359100 0.0 102192
08:00+10св2257100 0.0 102195
11:00+13с1244100 0.0 1021298
14:00+16юз1136100 0.0 1019542
17:00+15ю1149100 0.0 1019120
20:00+12св1158100 0.0 102077
26 октября, вт
вт2623:00+10св22605 0.0 102156
02:00+10св22600 0.0 102051
05:00+9св22610 0.0 102044
08:00+8ссв22625 0.0 102047
11:00+14юз01445 0.0 1020428
14:00+16юз22440 0.0 1019832
17:00+15зюз11550 0.0 1019168
20:00+11св22620 0.0 102164
27 октября, ср
ср2723:00+10св23610 0.0 102261
02:00+10ссв23665 0.0 102256
05:00+9св226793 0.0 102250
08:00+9ссв226110 0.0 102346
11:00+16с014652 0.0 1023338
14:00+18юз114124 0.0 1022886
17:00+16з125530 0.0 1021141
20:00+12св22617 0.0 102251
28 октября, чт
чт2823:00+11св235686 0.0 102257
02:00+10св32555 0.0 102154
05:00+9св336320 0.0 102259
08:00+9св226785 0.0 102249
11:00+14ю11500 0.0 1021557
14:00+16юз224628 0.0 10191247
17:00+14ю115561 0.0 1018270
20:00+10св2364100 0.0 1020104
29 октября, пт
пт2923:00+9ссв236688 0.0 1020103
02:00+10св227097 0.1 1020114
05:00+8св22723 0.0 101965
08:00+7св227286 0.0 102059
11:00+12ю1054100 0.0 1020555
14:00+13юз215351 0.0 1019990
17:00+12зюз116074 0.0 1019432
20:00+10св116696 0.0 102052